sat.trackr.live / text

‹ back to catalog

STARLINK-3821

NORAD 52357 · 2022-045AC

PAYLOAD ACTIVE UNKNOWN

§ Identity

Operator
Country
US
Launch date
2022-04-29
Launch site
AFETR
Launch vehicle
Mass (kg)
RCS (m²)

Purposes: comms

External: N2YO · Heavens-Above · Gunter

§ Orbital elements

Epoch: 2026-05-24T14:13:28.260480Z

Period
95.44 min
Inclination
53.2150°
Eccentricity
0.0001109
Mean motion
15.08837904 rev/d
Perigee alt
539.0 km
Apogee alt
540.5 km
Semi-major
6,917.9 km
B*
1.7770e-5
RAAN
218.3796°
Arg perigee
86.5712°
Mean anomaly
273.5407°
Rev number
22,724

§ Raw data

STARLINK-38211 52357U 22045AC  26144.59268820 -.00000005  00000+0  17770-4 0  99932 52357  53.2150 218.3796 0001109  86.5712 273.5407 15.08837904227246

JSON: /api/v1/satellites/52357 · /tle

For live sub-satellite position, see the globe view (requires WebGL).

§ Visibility from observer

Set your observer location to see the next 7 days of passes ≥ 10°. The values pass through the URL so the page stays shareable.

No JS? Fill the form by hand. The geolocation button needs JavaScript.